Regional Weather Roundup
Issued by NWS

Home | Current Version | Previous Version | Graphics & Text | Print | Product List | Glossary On
Versions: 1 2 3 4 5 6 7 8 9 10 11 12 13 14 15 16 17 18 19 20 21 22 23 24 25 26 27 28 29 30 31 32 33 34 35 36 37 38 39 40 41 42 43 44 45 46 47 48 49 50
761
ASUS43 KFSD 202010
RWRSD

WEATHER ROUNDUP FOR SOUTH DAKOTA
NATIONAL WEATHER SERVICE SIOUX FALLS SD
200 PM CST FRI JAN 20 2017

NOTE: "FAIR" INDICATES FEW OR NO CLOUDS BELOW 12,000 FEET WITH NO
SIGNIFICANT WEATHER AND/OR OBSTRUCTIONS TO VISIBILITY.


SDZ001>005-009-010-012>017-202100-
NORTHWEST AND NORTH CENTRAL SOUTH DAKOTA

CITY           SKY/WX    TMP DP  RH WIND       PRES   REMARKS
BUFFALO          N/A     37  31  78 NW22      29.24F
MOBRIDGE         N/A     29  25  85 N5        29.28F FOG     WCI  24
$$

SDZ012>016-024>037-041>051-057-063-072>074-202100-
SOUTHWEST AND SOUTH CENTRAL SOUTH DAKOTA

CITY           SKY/WX    TMP DP  RH WIND       PRES   REMARKS
RAPID CTY ARPT SUNNY     42  31  64 NW23G31   29.29F
PIERRE         SUNNY     20  16  84 SW5       29.31F WCI  13
CUSTER         CLOUDY    39  24  55 N3        29.30F
ELLSWORTH AFB  CLOUDY    41  32  70 N24       29.29F
PHILIP         CLOUDY    35  30  82 W8        29.29F WCI  29
PINE RIDGE     CLOUDY    36  27  69 W7        29.33F
SPEARFISH      FAIR      37  32  81 W15       29.35F
WINNER         FAIR      44  29  55 SW12      29.32F
$$

SDZ004>011-016>023-039-040-202100-
NORTHEAST SOUTH DAKOTA

CITY           SKY/WX    TMP DP  RH WIND       PRES   REMARKS
ABERDEEN       CLOUDY    35  32  88 SE12      29.35F WCI  27
WATERTOWN      CLOUDY    36  35  96 SE13      29.37F
BROOKINGS      CLOUDY    37  36  96 SE16      29.38F FOG
SISSETON         N/A     35  35 100 S9        29.40F WCI  28
$$

SDZ017-020-022-023-036>040-048>070-202100-
SOUTHEAST SOUTH DAKOTA

CITY           SKY/WX    TMP DP  RH WIND       PRES   REMARKS
SIOUX FALLS    CLOUDY    40  40 100 SE17      29.42F FOG
HURON          PTSUNNY   41  35  79 S12       29.34F
CHAMBERLAIN    SUNNY     40  33  74 SW6       29.32F
MITCHELL       SUNNY     46  37  71 S20G25    29.36F
YANKTON        PTSUNNY   46  39  76 S20G25    29.40F
$$

ABBREVIATIONS USED IN REMARKS
   TC - TEMPERATURE IN CELSIUS
  WCI - WIND CHILL INDEX
   HX - HEAT INDEX
  VSB - VISIBILITY





USA.gov is the U.S. government's official web portal to all federal, state and local government web resources and services.